Station BRND1 - 8555889 - Brandywine Shoal Light, DE Image indicating link to RSS feed of recent meteorological observations for station BRND1


Conditions at BRND1 as of
(8:30 am EDT)
1230 GMT on 05/21/2024:
     

Click on the graph icon in the table below to see a time series plot of the last five days of that observation.

5-day plot - Wind Direction Wind Direction (WDIR): W ( 260 deg true )
5-day plot - Wind Speed Wind Speed (WSPD): 6.0 kts
5-day plot - Wind Gust Wind Gust (GST): 7.0 kts
5-day plot - Atmospheric Pressure Atmospheric Pressure (PRES):30.07 in
5-day plot - Air Temperature Air Temperature (ATMP): 59.0 °F
5-day plot - Wind Speed at 10 Meters Wind Speed at 10 meters (WSPD10M): 5.8 kts
5-day plot - Wind Speed at 20 Meters Wind Speed at 20 meters (WSPD20M): 5.8 kts
5-day plot -  Wind Speed, Wind Gust and Atmospheric Pressure Combined plot of Wind Speed, Gust, and Air Pressure
NOS Water Level Observation Network Water Level
Previous observations
TIME
(EDT)
5-day plot - Wind Direction
WDIR
 
5-day plot - Wind Speed
WSPD
kts
5-day plot - Wind Gust
GST
kts
5-day plot - Wave Height
WVHT
ft
5-day plot - Dominant Wave Period
DPD
sec
5-day plot - Average Wave Period
APD
sec
5-day plot - Mean Wave Direction
MWD
 
5-day plot - Atmospheric Pressure
PRES
in
5-day plot - Pressure Tendency
PTDY
in
5-day plot - Air Temperature
ATMP
°F
5-day plot - Water Temperature
WTMP
°F
5-day plot - Dew Point
DEWP
°F
5-day plot - Salinity
SAL
psu
5-day plot - Visibility
VIS
nmi
5-day plot - Tide (above MLLW)
TIDE
ft
2024-05-21 08:24 amWSW 6.0 7.0----30.06- 58.8-----
2024-05-21 08:18 amWSW 7.0 8.0----30.06-------
2024-05-21 08:12 am W 7.0 8.0----30.06- 58.8-----
2024-05-21 08:06 amWSW 6.0 7.0----30.06- 58.8-----
2024-05-21 08:00 amWSW 5.1 6.0----30.06+0.04 58.6-----
2024-05-21 07:54 am W 5.1 5.1----30.06- 58.6-----
2024-05-21 07:48 am W 4.1 4.1----30.06- 58.6-----
2024-05-21 07:42 amWSW 4.1 5.1----30.05- 58.5-----
2024-05-21 07:36 am SW 4.1 5.1----30.05- 58.3-----
2024-05-21 07:30 amSSW 5.1 6.0----30.05- 58.1-----
2024-05-21 07:24 am S 6.0 6.0----30.04- 57.9-----
2024-05-21 07:18 am S 5.1 6.0----30.04- 58.1-----
2024-05-21 07:12 amSSW 5.1 5.1----30.04- 58.1-----
2024-05-21 07:06 am S 5.1 6.0----30.04- 57.9-----
2024-05-21 07:00 amSSW 5.1 5.1----30.04+0.03 58.1-----
2024-05-21 06:54 amSSW 5.1 5.1----30.04- 57.9-----
2024-05-21 06:48 amSSW 5.1 5.1----30.04- 57.9-----
2024-05-21 06:42 am SW 4.1 4.1----30.04- 57.9-----
2024-05-21 06:36 am SW 4.1 4.1----30.04- 57.6-----
2024-05-21 06:30 am SW 4.1 5.1----30.03- 57.4-----
2024-05-21 06:24 amWSW 5.1 6.0----30.04- 57.0-----
2024-05-21 06:18 am W 5.1 6.0----30.03- 56.7-----
2024-05-21 06:12 am W 5.1 5.1----30.03- 56.5-----
2024-05-21 06:06 am W 4.1 5.1----30.03- 56.1-----
2024-05-21 06:00 am W 5.1 6.0----30.03+0.01 56.1-----
2024-05-21 05:54 am W 6.0 8.0----30.03- 56.1-----
2024-05-21 05:48 amWNW 6.0 8.0----30.03- 56.1-----
2024-05-21 05:42 am W 5.1 7.0----30.03- 55.9-----
2024-05-21 05:36 am W 7.0 8.0----30.03- 55.6-----
2024-05-21 05:30 am W 5.1 7.0----30.02- 55.8-----
2024-05-21 05:24 am W 5.1 7.0----30.02- 55.9-----
2024-05-21 05:18 am W 5.1 7.0----30.02- 56.3-----
2024-05-21 05:12 amWSW 6.0 7.0----30.02- 56.5-----
2024-05-21 05:06 amWSW 5.1 7.0----30.02- 56.3-----
2024-05-21 05:00 amWSW 6.0 7.0----30.02+0.00 56.1-----
2024-05-21 04:54 amWSW 5.1 7.0----30.02- 56.3-----
2024-05-21 04:48 amWSW 6.0 7.0----30.01- 56.5-----
2024-05-21 04:42 amWSW 6.0 8.0----30.01- 56.7-----
2024-05-21 04:36 amWSW 6.0 7.0----30.01- 57.0-----
2024-05-21 04:30 amWSW 6.0 6.0----30.01- 57.0-----
2024-05-21 04:24 am SW 6.0 7.0----30.01- 57.0-----
2024-05-21 04:18 amSSW 5.1 6.0----30.01- 56.8-----
2024-05-21 04:12 amSSW 5.1 6.0----30.01- 56.8-----
2024-05-21 04:06 amSSW 5.1 5.1----30.01- 56.8-----
2024-05-21 04:00 am SW 6.0 7.0----30.01-0.01 56.8-----
2024-05-21 03:54 am SW 5.1 6.0----30.01- 57.0-----
2024-05-21 03:48 amSSW 5.1 6.0----30.01- 57.2-----
2024-05-21 03:42 am S 5.1 6.0----30.01- 57.0-----
2024-05-21 03:36 amSSW 5.1 5.1----30.01- 56.8-----
2024-05-21 03:30 am S 4.1 6.0----30.01- 56.8-----
2024-05-21 03:24 am S 5.1 6.0----30.01- 56.8-----
2024-05-21 03:18 am S 5.1 6.0----30.01- 56.7-----
2024-05-21 03:12 am S 5.1 5.1----30.01- 56.7-----
2024-05-21 03:06 am S 5.1 5.1----30.01- 56.7-----
2024-05-21 03:00 am S 4.1 5.1----30.02-0.02 56.5-----
2024-05-21 02:54 am S 4.1 5.1----30.02- 56.5-----
2024-05-21 02:48 am S 4.1 5.1----30.02- 56.5-----
2024-05-21 02:42 am S 5.1 5.1----30.03- 56.3-----
2024-05-21 02:36 amSSW 4.1 5.1----30.03- 56.3-----
2024-05-21 02:30 am S 4.1 5.1----30.03- 56.3-----
2024-05-21 02:24 am S 4.1 5.1----30.02- 56.3-----
2024-05-21 02:18 am S 5.1 6.0----30.02- 56.1-----
2024-05-21 02:12 am S 5.1 6.0----30.02- 55.9-----
2024-05-21 02:06 am S 6.0 6.0----30.02- 55.9-----
2024-05-21 02:00 am S 6.0 7.0----30.02-0.02 55.9-----
2024-05-21 01:54 am S 6.0 7.0----30.03- 55.8-----
2024-05-21 01:48 am S 6.0 7.0----30.02- 55.8-----
2024-05-21 01:42 am S 6.0 7.0----30.02- 55.6-----
2024-05-21 01:36 am S 6.0 7.0----30.02- 55.4-----
2024-05-21 01:30 am S 6.0 8.9----30.02- 55.4-----
2024-05-21 01:24 am S 7.0 8.0----30.03- 55.0-----
2024-05-21 01:18 am S 8.0 8.9----30.03- 55.0-----
2024-05-21 01:12 am S 8.0 8.9----30.03- 54.9-----
2024-05-21 01:06 am S 8.0 8.9----30.03- 54.9-----
2024-05-21 01:00 am S 8.0 9.9----30.02-0.03 54.9-----
2024-05-21 12:54 am S 9.9 9.9----30.02- 54.3-----
2024-05-21 12:48 am S 8.9 9.9----30.02- 54.3-----
2024-05-21 12:42 am S 8.9 9.9----30.02- 54.5-----
2024-05-21 12:36 am S 8.0 8.9----30.02- 54.5-----
2024-05-21 12:30 am S 8.0 8.9----30.02- 54.1-----
2024-05-21 12:24 am S 8.0 8.9----30.03- 54.3-----
2024-05-21 12:18 am S 8.0 8.9----30.03- 54.3-----
2024-05-21 12:12 am S 8.0 9.9----30.03- 54.3-----
2024-05-21 12:06 am S 8.0 8.9----30.03- 54.1-----
2024-05-21 12:00 am S 8.0 9.9----30.03- 54.1-----
2024-05-20 11:54 pm S 8.0 8.9----30.04- 54.1-----
2024-05-20 11:48 pmSSE 8.0 8.9----30.04- 54.1-----
2024-05-20 11:42 pmSSE 8.0 8.0----30.04- 54.1-----
2024-05-20 11:36 pm S 7.0 8.0----30.04- 54.1-----
2024-05-20 11:30 pm S 6.0 7.0----30.04- 53.8-----
2024-05-20 11:24 pm S 7.0 8.0----30.05- 53.8-----
2024-05-20 11:18 pmSSE 6.0 7.0----30.04- 53.8-----
2024-05-20 11:12 pmSSE 6.0 8.0----30.04- 53.8-----
2024-05-20 11:06 pmSSE 6.0 7.0----30.05- 53.8-----
2024-05-20 11:00 pmSSE 7.0 7.0----30.05+0.02 53.8-----
2024-05-20 10:54 pmSSE 6.0 8.0----30.05- 53.6-----
2024-05-20 10:48 pmSSE 6.0 8.0----30.05- 53.8-----
2024-05-20 10:42 pmSSE 6.0 8.0----30.05- 53.8-----
2024-05-20 10:36 pmSSE 6.0 8.0----30.05- 54.0-----
2024-05-20 10:30 pmSSE 6.0 8.0----30.06- 53.8-----
2024-05-20 10:24 pmSSE 7.0 8.9----30.05- 53.8-----
2024-05-20 10:18 pmSSE 7.0 8.9----30.05- 54.0-----
2024-05-20 10:12 pmSSE 8.9 8.9----30.05- 53.6-----
2024-05-20 10:06 pmSSE 8.9 9.9----30.05- 54.0-----
2024-05-20 10:00 pmSSE 9.9 11.1----30.05+0.04 53.6-----
2024-05-20 09:54 pmSSE 9.9 11.1----30.05- 54.0-----
2024-05-20 09:48 pmSSE 9.9 11.1----30.05-------
2024-05-20 09:42 pmSSE 9.9 12.0----30.05- 54.5-----
2024-05-20 09:36 pmSSE 9.9 11.1----30.04- 55.0-----
2024-05-20 09:30 pmSSE 9.9 11.1----30.04- 55.0-----
2024-05-20 09:24 pmSSE 9.9 11.1----30.04- 55.2-----
2024-05-20 09:18 pmSSE 8.9 11.1----30.04-------
2024-05-20 09:12 pmSSE 8.9 11.1----30.03- 55.4-----
2024-05-20 09:06 pmSSE 9.9 11.1----30.03- 55.2-----
2024-05-20 09:00 pmSSE 11.1 12.0------ 55.2-----
2024-05-20 08:54 pmSSE 11.1 13.0------ 55.2-----
2024-05-20 08:48 pmSSE 11.1 13.0----30.03- 55.2-----
2024-05-20 08:42 pmSSE 12.0 13.0----30.03- 55.4-----
2024-05-20 08:36 pmSSE 12.0 13.0----30.03- 55.4-----
2024-05-20 08:30 pmSSE 11.1 12.0----30.03- 55.4-----
2024-05-20 08:24 pmSSE 12.0 13.0----30.03- 55.2-----
2024-05-20 08:18 pmSSE 12.0 14.0----30.03- 55.2-----
2024-05-20 08:12 pm SE 13.0 14.0----30.03- 54.9-----
2024-05-20 08:06 pmSSE 13.0 15.0----30.03- 54.7-----
2024-05-20 08:00 pmSSE 14.0 15.0----30.03-0.01 54.3-----
2024-05-20 07:54 pmSSE 13.0 14.0----30.02- 54.3-----
2024-05-20 07:48 pmSSE 13.0 14.0----30.03- 54.3-----
2024-05-20 07:42 pmSSE 14.0 15.0----30.02- 54.5-----
2024-05-20 07:36 pmSSE 14.0 15.0----30.02- 54.7-----
2024-05-20 07:30 pmSSE 13.0 14.0----30.02- 55.0-----
2024-05-20 07:24 pmSSE 13.0 14.0----30.02- 55.4-----
2024-05-20 07:18 pmSSE 12.0 13.0----30.02- 55.8-----
2024-05-20 07:12 pmSSE 12.0 13.0----30.01- 56.1-----
2024-05-20 07:06 pmSSE 12.0 13.0----30.01- 56.3-----
2024-05-20 07:00 pmSSE 12.0 14.0----30.01-0.03------
2024-05-20 06:54 pm SE 13.0 14.0----30.01-------
2024-05-20 06:48 pm SE 13.0 14.0----30.02-------
2024-05-20 06:42 pm SE 13.0 14.0----30.02-------
2024-05-20 06:36 pmSSE 13.0 13.0----30.02-------
2024-05-20 06:30 pm SE 13.0 14.0----30.03- 56.3-----
2024-05-20 06:24 pmSSE 14.0 15.0----30.02- 56.3-----
2024-05-20 06:18 pmSSE 14.0 15.0----30.02- 56.3-----
2024-05-20 06:12 pmSSE 14.0 15.0----30.03- 56.5-----
2024-05-20 06:06 pmSSE 14.0 15.0----30.02- 56.7-----
2024-05-20 06:00 pmSSE 15.0 15.9----30.02-0.03 56.7-----
2024-05-20 05:54 pmSSE 15.0 15.9----30.03- 56.7-----
2024-05-20 05:48 pmSSE 15.0 15.0----30.03- 56.8-----
2024-05-20 05:42 pmSSE 15.0 15.9----30.03- 57.2-----
2024-05-20 05:36 pmSSE 14.0 15.0----30.03- 57.4-----
2024-05-20 05:30 pmSSE 15.0 15.0----30.03- 57.2-----
2024-05-20 05:24 pmSSE 14.0 15.0----30.03- 57.2-----
2024-05-20 05:18 pmSSE 14.0 15.0----30.03- 57.2-----
2024-05-20 05:12 pmSSE 14.0 15.0----30.03- 57.4-----
2024-05-20 05:06 pmSSE 13.0 14.0----30.03- 57.6-----
2024-05-20 05:00 pmSSE 12.0 13.0----30.03-0.01 57.9-----
2024-05-20 04:54 pmSSE 12.0 13.0----30.03- 57.9-----
2024-05-20 04:48 pmSSE 11.1 12.0----30.03- 58.1-----
2024-05-20 04:42 pmSSE 11.1 12.0----30.03- 58.1-----
2024-05-20 04:36 pmSSE 9.9 11.1----30.03- 58.1-----
2024-05-20 04:30 pmSSE 9.9 11.1----30.03-------
2024-05-20 04:24 pmSSE 9.9 11.1----30.04-------
2024-05-20 04:18 pmSSE 8.9 9.9----30.04- 58.8-----
2024-05-20 04:12 pmSSE 8.9 8.9----30.04- 59.4-----
2024-05-20 04:06 pmSSE 8.9 9.9----30.04- 59.5-----
2024-05-20 04:00 pm S 8.0 8.9----30.04-0.03 59.5-----
2024-05-20 03:54 pm S 7.0 8.9----30.04- 59.5-----
2024-05-20 03:48 pm S 7.0 8.0----30.05- 59.5-----
2024-05-20 03:42 pm S 7.0 8.0----30.04- 59.7-----
2024-05-20 03:36 pmSSE 7.0 8.0----30.04- 59.5-----
2024-05-20 03:30 pm S 7.0 7.0----30.04- 59.7-----
2024-05-20 03:24 pm S 7.0 8.0----30.05- 59.5-----
2024-05-20 03:18 pm S 7.0 8.0----30.05- 59.4-----
2024-05-20 03:12 pm S 7.0 8.0----30.05- 59.4-----
2024-05-20 03:06 pm S 6.0 7.0----30.05- 59.5-----
2024-05-20 03:00 pm S 6.0 7.0----30.06-0.03 59.7-----
2024-05-20 02:54 pm S 5.1 6.0----30.06- 60.1-----
2024-05-20 02:48 pm S 5.1 5.1----30.06- 60.3-----
2024-05-20 02:42 pm S 4.1 5.1----30.06- 60.4-----
2024-05-20 02:36 pm S 4.1 5.1----30.06- 60.3-----
2024-05-20 02:30 pmSSW 4.1 5.1----30.06- 60.1-----
2024-05-20 02:24 pmSSW 4.1 5.1----30.06- 60.3-----
2024-05-20 02:18 pmSSW 4.1 4.1----30.06-------
2024-05-20 02:12 pmSSW 4.1 5.1----30.06- 60.1-----
2024-05-20 02:06 pmSSW 2.9 4.1----30.06- 60.3-----
2024-05-20 02:00 pmSSW 2.9 4.1----30.05-0.04 60.3-----
2024-05-20 01:54 pm SW 2.9 5.1----30.05- 59.9-----
2024-05-20 01:48 pm SW 4.1 4.1----30.06- 59.9-----
2024-05-20 01:42 pmWSW 2.9 4.1----30.06- 60.1-----
2024-05-20 01:36 pmWSW 2.9 4.1----30.06- 59.7-----
2024-05-20 01:30 pm W 4.1 5.1----30.06- 59.5-----
2024-05-20 01:24 pm W 2.9 4.1----30.06- 59.4-----
2024-05-20 01:18 pm W 1.9 5.1----30.06- 59.4-----
2024-05-20 01:12 pmWNW 5.1 5.1----30.07- 59.2-----
2024-05-20 01:06 pm W 5.1 6.0----30.07- 59.0-----
2024-05-20 01:00 pmWNW 4.1 4.1----30.07-0.01 59.2-----
2024-05-20 12:54 pm NW 4.1 5.1----30.07- 58.8-----
2024-05-20 12:48 pm NW 4.1 5.1----30.07- 58.8-----
2024-05-20 12:42 pmWNW 4.1 5.1----30.08- 58.6-----
2024-05-20 12:36 pmWNW 4.1 5.1----30.08- 58.5-----
2024-05-20 12:30 pmWNW 4.1 5.1----30.08- 58.5-----
2024-05-20 12:24 pmWNW 2.9 5.1----30.08- 58.5-----
2024-05-20 12:18 pmWNW 4.1 4.1----30.08- 58.3-----
2024-05-20 12:12 pm NW 2.9 2.9----30.08- 58.3-----
2024-05-20 12:06 pm NW 2.9 2.9----30.08- 58.5-----
2024-05-20 12:00 pm- 0.0 1.9----30.08-0.01 58.6-----
2024-05-20 11:54 am N 1.9 2.9----30.08- 58.3-----
2024-05-20 11:48 am NE 1.9 2.9----30.08- 58.5-----
2024-05-20 11:42 amNNE 1.9 2.9----30.08- 58.3-----
2024-05-20 11:36 amNNE 1.9 2.9----30.09- 58.5-----
2024-05-20 11:30 amNNE 1.0 2.9----30.08- 58.5-----
2024-05-20 11:24 am NE 2.9 2.9----30.09- 58.1-----
2024-05-20 11:18 amENE 1.9 5.1----30.09- 57.9-----
2024-05-20 11:12 am NE 5.1 6.0----30.09- 57.6-----
2024-05-20 11:06 amNNE 2.9 4.1----30.09- 57.7-----
2024-05-20 11:00 amNNE 5.1 6.0----30.09+0.01 57.6-----
2024-05-20 10:54 am NE 4.1 5.1----30.09- 57.6-----
2024-05-20 10:48 am NE 5.1 6.0----30.09- 57.4-----
2024-05-20 10:42 am NE 7.0 7.0----30.09- 57.2-----
2024-05-20 10:36 am NE 4.1 6.0----30.09- 57.2-----
2024-05-20 10:30 am NE 6.0 7.0----30.09- 57.0-----
2024-05-20 10:24 am NE 4.1 7.0----30.09- 57.0-----
2024-05-20 10:18 amNNE 6.0 8.0----30.09- 56.8-----
2024-05-20 10:12 am NE 5.1 6.0----30.09- 56.8-----
2024-05-20 10:06 am NE 5.1 7.0----30.09- 56.8-----
2024-05-20 10:00 amNNE 5.1 7.0----30.09+0.04 56.8-----
2024-05-20 09:54 am NE 6.0 8.0----30.09- 56.7-----
2024-05-20 09:48 am NE 5.1 6.0----30.09- 56.7-----
2024-05-20 09:42 am NE 5.1 8.0----30.09- 56.7-----
2024-05-20 09:36 am NE 6.0 7.0----30.09- 56.5-----
2024-05-20 09:30 amNNE 5.1 7.0----30.09- 56.3-----
2024-05-20 09:24 am NE 5.1 8.0----30.10- 56.3-----
2024-05-20 09:18 am NE 8.0 8.9----30.09- 56.3-----
2024-05-20 09:12 amENE 7.0 8.9----30.09- 56.3-----
2024-05-20 09:06 amNNE 7.0 8.9----30.09- 56.3-----
2024-05-20 09:00 amENE 5.1 7.0----30.09+0.06 56.3-----
2024-05-20 08:54 am NE 7.0 11.1----30.09- 56.1-----